Time,TemperatureF,DewpointF,PressureIn,WindDirection,WindDirectionDegrees,WindSpeedMPH,WindSpeedGustMPH,Humidity,HourlyPrecipIn,Conditions,Clouds,dailyrainin,SoftwareType,DateUTC
2015-04-25 00:01:00,45.0,37.0,-100.00,WSW,255,2.0,5.0,73,-99.99,,,-99.99,,2015-04-25 07:01:00,
2015-04-25 00:11:00,45.0,37.0,-100.00,WNW,295,2.0,7.0,73,-99.99,,,-99.99,,2015-04-25 07:11:00,
2015-04-25 00:21:00,45.0,37.0,-100.00,WNW,295,2.0,7.0,73,-99.99,,,-99.99,,2015-04-25 07:21:00,
2015-04-25 00:41:00,45.0,37.0,-100.00,WNW,285,2.0,4.0,72,-99.99,,,-99.99,,2015-04-25 07:41:00,
2015-04-25 00:51:00,45.0,37.0,-100.00,WNW,285,2.0,4.0,72,-99.99,,,-99.99,,2015-04-25 07:51:00,
2015-04-25 01:01:00,45.0,37.0,-100.00,SSW,200,1.0,3.0,72,-99.99,,,-99.99,,2015-04-25 08:01:00,
2015-04-25 01:21:00,45.0,37.0,-100.00,North,-9999,0.0,1.0,72,-99.99,,,-99.99,,2015-04-25 08:21:00,
2015-04-25 01:42:00,45.0,37.0,-100.00,North,-9999,0.0,0.0,74,-99.99,,,-99.99,,2015-04-25 08:42:00,
2015-04-25 01:51:00,45.0,37.0,-100.00,North,-9999,0.0,0.0,74,-99.99,,,-99.99,,2015-04-25 08:51:00,
2015-04-25 02:01:00,45.0,37.0,-100.00,North,-9999,0.0,0.0,75,-99.99,,,-99.99,,2015-04-25 09:01:00,
2015-04-25 02:11:00,45.0,37.0,-100.00,North,-9999,0.0,0.0,75,-99.99,,,-99.99,,2015-04-25 09:11:00,
2015-04-25 02:21:00,45.0,37.0,-100.00,North,-9999,0.0,0.0,75,-99.99,,,-99.99,,2015-04-25 09:21:00,
2015-04-25 02:41:00,44.0,37.0,-100.00,North,-9999,0.0,1.0,77,-99.99,,,-99.99,,2015-04-25 09:41:00,
2015-04-25 02:52:00,44.0,37.0,-100.00,North,-9999,0.0,1.0,77,-99.99,,,-99.99,,2015-04-25 09:52:00,
2015-04-25 03:01:00,44.0,37.0,-100.00,North,-9999,0.0,1.0,78,-99.99,,,-99.99,,2015-04-25 10:01:00,
2015-04-25 03:11:00,43.0,37.0,-100.00,North,-9999,0.0,1.0,79,-99.99,,,-99.99,,2015-04-25 10:11:00,
2015-04-25 03:31:00,43.0,37.0,-100.00,North,-9999,0.0,0.0,80,-99.99,,,-99.99,,2015-04-25 10:31:00,
2015-04-25 03:41:00,42.0,37.0,-100.00,North,-9999,0.0,1.0,81,-99.99,,,-99.99,,2015-04-25 10:41:00,
2015-04-25 04:02:00,42.0,37.0,-100.00,North,-9999,0.0,1.0,82,-99.99,,,-99.99,,2015-04-25 11:02:00,
2015-04-25 04:21:00,41.0,37.0,-100.00,North,-9999,0.0,1.0,84,-99.99,,,-99.99,,2015-04-25 11:21:00,
2015-04-25 04:42:00,41.0,37.0,-100.00,North,-9999,0.0,0.0,85,-99.99,,,-99.99,,2015-04-25 11:42:00,
2015-04-25 05:02:00,41.0,37.0,-100.00,North,-9999,0.0,0.0,85,-99.99,,,-99.99,,2015-04-25 12:02:00,
2015-04-25 05:21:00,42.0,38.0,-100.00,North,-9999,0.0,1.0,85,-99.99,,,-99.99,,2015-04-25 12:21:00,
2015-04-25 06:01:00,40.0,36.0,-100.00,North,-9999,0.0,0.0,86,-99.99,,,-99.99,,2015-04-25 13:01:00,
2015-04-25 06:21:00,40.0,36.0,-100.00,North,-9999,0.0,1.0,87,-99.99,,,-99.99,,2015-04-25 13:21:00,
2015-04-25 06:42:00,40.0,36.0,-100.00,North,-9999,0.0,0.0,88,-99.99,,,-99.99,,2015-04-25 13:42:00,
2015-04-25 07:01:00,39.0,36.0,-100.00,North,-9999,0.0,1.0,89,-99.99,,,-99.99,,2015-04-25 14:01:00,
2015-04-25 07:42:00,38.0,35.0,-100.00,North,-9999,0.0,0.0,90,-99.99,,,-99.99,,2015-04-25 14:42:00,
2015-04-25 08:01:00,38.0,35.0,-100.00,North,-9999,0.0,0.0,91,-99.99,,,-99.99,,2015-04-25 15:01:00,
2015-04-25 08:21:00,38.0,35.0,-100.00,North,-9999,0.0,1.0,91,-99.99,,,-99.99,,2015-04-25 15:21:00,
2015-04-25 08:31:00,38.0,35.0,-100.00,North,-9999,0.0,1.0,91,-99.99,,,-99.99,,2015-04-25 15:31:00,
2015-04-25 08:41:00,39.0,36.0,-100.00,North,-9999,0.0,1.0,91,-99.99,,,-99.99,,2015-04-25 15:41:00,
2015-04-25 09:01:00,40.0,38.0,-100.00,West,280,1.0,4.0,91,-99.99,,,-99.99,,2015-04-25 16:01:00,
2015-04-25 09:11:00,42.0,37.0,-100.00,WNW,285,1.0,6.0,84,-99.99,,,-99.99,,2015-04-25 16:11:00,
2015-04-25 09:34:00,44.0,36.0,-100.00,NW,325,1.0,6.0,72,-99.99,,,-99.99,,2015-04-25 16:34:00,
2015-04-25 09:52:00,45.0,35.0,-100.00,NW,315,2.0,7.0,66,-99.99,,,-99.99,,2015-04-25 16:52:00,
2015-04-25 10:02:00,46.0,34.0,-100.00,WSW,255,2.0,7.0,62,-99.99,,,-99.99,,2015-04-25 17:02:00,
2015-04-25 10:21:00,47.0,34.0,-100.00,NW,315,2.0,7.0,59,-99.99,,,-99.99,,2015-04-25 17:21:00,
2015-04-25 10:42:00,49.0,33.0,-100.00,WNW,290,1.0,7.0,53,-99.99,,,-99.99,,2015-04-25 17:42:00,
2015-04-25 11:01:00,51.0,33.0,-100.00,WNW,285,4.0,10.0,49,-99.99,,,-99.99,,2015-04-25 18:01:00,
2015-04-25 11:21:00,52.0,32.0,-100.00,West,280,4.0,11.0,45,-99.99,,,-99.99,,2015-04-25 18:21:00,
2015-04-25 11:42:00,55.0,29.0,-100.00,WNW,290,4.0,7.0,37,-99.99,,,-99.99,,2015-04-25 18:42:00,
2015-04-25 11:52:00,55.0,29.0,-100.00,WNW,290,4.0,7.0,37,-99.99,,,-99.99,,2015-04-25 18:52:00,
2015-04-25 12:01:00,55.0,29.0,-100.00,WNW,285,4.0,8.0,36,-99.99,,,-99.99,,2015-04-25 19:01:00,
2015-04-25 12:11:00,56.0,28.0,-100.00,WNW,285,5.0,10.0,34,-99.99,,,-99.99,,2015-04-25 19:11:00,
2015-04-25 12:32:00,56.0,27.0,-100.00,NW,315,1.0,11.0,32,-99.99,,,-99.99,,2015-04-25 19:32:00,
2015-04-25 12:42:00,57.0,26.0,-100.00,West,270,4.0,11.0,30,-99.99,,,-99.99,,2015-04-25 19:42:00,
2015-04-25 12:52:00,57.0,26.0,-100.00,West,270,4.0,11.0,30,-99.99,,,-99.99,,2015-04-25 19:52:00,
2015-04-25 13:01:00,57.0,25.0,-100.00,West,270,4.0,12.0,29,-99.99,,,-99.99,,2015-04-25 20:01:00,
2015-04-25 13:11:00,58.0,25.0,-100.00,West,275,4.0,14.0,28,-99.99,,,-99.99,,2015-04-25 20:11:00,
2015-04-25 13:31:00,57.0,26.0,-100.00,West,265,4.0,12.0,30,-99.99,,,-99.99,,2015-04-25 20:31:00,
2015-04-25 13:41:00,60.0,27.0,-100.00,WNW,300,7.0,17.0,29,-99.99,,,-99.99,,2015-04-25 20:41:00,
2015-04-25 14:01:00,61.0,27.0,-100.00,West,265,3.0,14.0,28,-99.99,,,-99.99,,2015-04-25 21:01:00,
2015-04-25 14:11:00,60.0,27.0,-100.00,SSE,155,2.0,12.0,28,-99.99,,,-99.99,,2015-04-25 21:11:00,
2015-04-25 14:31:00,59.0,26.0,-100.00,West,265,3.0,14.0,28,-99.99,,,-99.99,,2015-04-25 21:31:00,
2015-04-25 15:01:00,61.0,27.0,-100.00,North,5,1.0,14.0,28,-99.99,,,-99.99,,2015-04-25 22:01:00,
2015-04-25 15:21:00,61.0,27.0,-100.00,WNW,300,6.0,14.0,27,-99.99,,,-99.99,,2015-04-25 22:21:00,
2015-04-25 15:41:00,61.0,27.0,-100.00,WNW,285,6.0,14.0,28,-99.99,,,-99.99,,2015-04-25 22:41:00,
2015-04-25 15:52:00,61.0,27.0,-100.00,WNW,285,6.0,14.0,28,-99.99,,,-99.99,,2015-04-25 22:52:00,
2015-04-25 16:01:00,61.0,28.0,-100.00,WNW,300,6.0,12.0,28,-99.99,,,-99.99,,2015-04-25 23:01:00,
2015-04-25 16:21:00,63.0,29.0,-100.00,West,270,6.0,13.0,28,-99.99,,,-99.99,,2015-04-25 23:21:00,
2015-04-25 16:42:00,63.0,27.0,-100.00,WNW,285,7.0,15.0,26,-99.99,,,-99.99,,2015-04-25 23:42:00,
2015-04-25 17:01:00,63.0,29.0,-100.00,West,270,6.0,14.0,27,-99.99,,,-99.99,,2015-04-26 00:01:00,
2015-04-25 17:11:00,63.0,29.0,-100.00,West,270,6.0,14.0,27,-99.99,,,-99.99,,2015-04-26 00:11:00,
2015-04-25 17:21:00,62.0,28.0,-100.00,WNW,285,6.0,14.0,27,-99.99,,,-99.99,,2015-04-26 00:21:00,
2015-04-25 17:42:00,62.0,28.0,-100.00,WNW,285,6.0,16.0,28,-99.99,,,-99.99,,2015-04-26 00:42:00,
2015-04-25 17:52:00,62.0,28.0,-100.00,WNW,285,6.0,16.0,28,-99.99,,,-99.99,,2015-04-26 00:52:00,
2015-04-25 18:01:00,63.0,28.0,-100.00,NW,315,2.0,9.0,27,-99.99,,,-99.99,,2015-04-26 01:01:00,
2015-04-25 18:11:00,62.0,28.0,-100.00,West,265,5.0,14.0,27,-99.99,,,-99.99,,2015-04-26 01:11:00,
2015-04-25 18:31:00,59.0,27.0,-100.00,WSW,255,3.0,8.0,29,-99.99,,,-99.99,,2015-04-26 01:31:00,
2015-04-25 18:41:00,58.0,27.0,-100.00,WSW,245,2.0,11.0,30,-99.99,,,-99.99,,2015-04-26 01:41:00,
2015-04-25 19:01:00,57.0,27.0,-100.00,West,270,2.0,6.0,31,-99.99,,,-99.99,,2015-04-26 02:01:00,
2015-04-25 19:21:00,57.0,27.0,-100.00,WSW,250,3.0,8.0,32,-99.99,,,-99.99,,2015-04-26 02:21:00,
2015-04-25 19:51:00,55.0,27.0,-100.00,West,280,2.0,6.0,34,-99.99,,,-99.99,,2015-04-26 02:51:00,
2015-04-25 20:01:00,55.0,28.0,-100.00,WNW,295,4.0,10.0,35,-99.99,,,-99.99,,2015-04-26 03:01:00,
2015-04-25 20:11:00,54.0,27.0,-100.00,NW,315,1.0,5.0,36,-99.99,,,-99.99,,2015-04-26 03:11:00,
2015-04-25 20:31:00,53.0,27.0,-100.00,North,-9999,0.0,7.0,37,-99.99,,,-99.99,,2015-04-26 03:31:00,
2015-04-25 20:41:00,51.0,27.0,-100.00,West,270,1.0,3.0,39,-99.99,,,-99.99,,2015-04-26 03:41:00,
2015-04-25 20:51:00,51.0,27.0,-100.00,West,270,1.0,3.0,39,-99.99,,,-99.99,,2015-04-26 03:51:00,
2015-04-25 21:01:00,50.0,28.0,-100.00,ESE,120,1.0,1.0,43,-99.99,,,-99.99,,2015-04-26 04:01:00,
2015-04-25 21:21:00,48.0,28.0,-100.00,North,-9999,0.0,2.0,46,-99.99,,,-99.99,,2015-04-26 04:21:00,
2015-04-25 21:41:00,47.0,30.0,-100.00,North,-9999,0.0,2.0,52,-99.99,,,-99.99,,2015-04-26 04:41:00,
2015-04-25 21:52:00,47.0,30.0,-100.00,North,-9999,0.0,2.0,52,-99.99,,,-99.99,,2015-04-26 04:52:00,
2015-04-25 22:01:00,46.0,31.0,-100.00,ESE,120,2.0,4.0,54,-99.99,,,-99.99,,2015-04-26 05:01:00,